Regional Weather Roundup
Issued by NWS

Home | Current Version | Previous Version | Graphics & Text | Print | Product List | Glossary On
Versions: 1 2 3 4 5 6 7 8 9 10 11 12 13 14 15 16 17 18 19 20 21 22 23 24 25 26 27
000
ASUS45 KBOU 290107
RWRCO

WEATHER ROUNDUP FOR COLORADO
NATIONAL WEATHER SERVICE DENVER/BOULDER CO
700 PM MDT THU APR 28 2016

NOTE: "FAIR" INDICATES FEW OR NO CLOUDS BELOW 12000 FEET WITH NO
SIGNIFICANT WEATHER AND/OR OBSTRUCTIONS TO VISIBILITY.

COZ001>005-013-030-031-290200-
...NORTHWEST COLORADO...

CITY           SKY/WX    TMP DP  RH WIND       PRES   REMARKS
CRAIG          PTSUNNY   40  35  83 CALM      29.89R
HAYDEN         FAIR      36  32  87 S5        29.88S
MEEKER         PTSUNNY   43  35  73 E7        29.85S
MOUNT WERNER   NOT AVBL
STEAMBOAT SPGS FAIR      35  33  92 NW3       29.88R
WALDEN         MOCLDY    32  30  93 N14       29.91F WCI  22
$$

COZ006>008-011-290200-
...WEST CENTRAL VALLEYS...

CITY           SKY/WX    TMP DP  RH WIND       PRES   REMARKS
GRAND JUNCTION PTSUNNY   51  38  60 W7        29.78R
MONTROSE       FAIR      50  37  61 N12       29.80R
EAGLE          PTSUNNY   46  36  66 NW8       29.84R
RIFLE          FAIR      51  35  54 NW5       29.80R
DELTA          NOT AVBL
NUCLA          NOT AVBL
$$

COZ017>023-064>068-290200-
...SOUTHWEST COLORADO...

CITY           SKY/WX    TMP DP  RH WIND       PRES   REMARKS
DURANGO        FAIR      53  23  31 W18       29.75R
CORTEZ         PTSUNNY   46  37  71 E12       29.80F
PAGOSA SPRINGS CLOUDY    54   4  13 SW7G16    29.79R
TELLURIDE      PTSUNNY   38  32  78 W12       29.85R
WOLF CREEK PAS NOT AVBL
$$

COZ009-010-012-014-032>034-037-058>063-290200-
...CENTRAL COLORADO...

CITY           SKY/WX    TMP DP  RH WIND       PRES   REMARKS
ASPEN          PTSUNNY   41  32  70 NW3       29.85R
BUENA VISTA    CLOUDY    35  30  82 SE12      29.95R WCI  27
COPPER MTN     NOT AVBL
BERTHOUD PASS  HAZE      18   9  68 SE15      29.97F VSB<1/4 WCI   3
COTTONWOOD PAS LGT SNOW  32  30  93 E5        29.96S WCI  27
GUNNISON       FAIR      43  27  52 SW6       29.87R
KREMMLING      CLOUDY    41  32  70 N13G18    29.88R
LEADVILLE      CLOUDY    27  27 100 S16       29.93R FOG     WCI  15
MONARCH PASS   SNOW      23  19  86 E9G17     30.08R VSB<1/4 WCI  13
SALIDA         CLOUDY    37  32  83 SE8       30.02R
SUNLIGHT       FOG       30  30 100 NW5       29.95S VSB 1/2 WCI  25
WILKERSON PASS SNOW      27  25  93 S6        30.02R VSB 1/2 WCI  20
$$

COZ069>075-290200-
...SAN LUIS VALLEY/SANGRE DE CRISTO MOUNTAINS...

CITY           SKY/WX    TMP DP  RH WIND       PRES   REMARKS
ALAMOSA        LGT RAIN  42  33  70 E15G25    29.83R
LA VETA PASS   SNOW      27  25  93 MISG      29.97S VSB 1/2
SAGUACHE       MOCLDY    45  28  53 SE10      29.86S
$$

COZ035-036-038>040-290200-
...NORTHERN COLORADO FRONT RANGE...

CITY           SKY/WX    TMP DP  RH WIND       PRES   REMARKS
DENVER INTL AP CLOUDY    39  32  76 E15       29.98S
DMNS CITY PARK   N/A     40  33  78 E9G18     29.99R
AURORA         CLOUDY    38  35  90 E9        29.99R
FRONT RANGE AP CLOUDY    37  34  87 E10G18    29.99S
ERIE MUNI ARPT CLOUDY    38  36  89 E5        30.00S
BOULDER MUN AP CLOUDY    37  36  93 E5        30.00R
CENTENNIAL     CLOUDY    38  33  82 W5        29.98R
BROOMFIELD     DRIZZLE   37  36  93 CALM      30.00R
FORT COLLINS   CLOUDY    39  34  81 SE12      30.03R
LONGMONT       CLOUDY    41  36  80 E6        30.03R
$$

COZ041-046-047-076>085-087-088-290200-
...PIKES PEAK/PALMER DIVIDE AND SOUTHERN FOOTHILLS...

CITY           SKY/WX    TMP DP  RH WIND       PRES   REMARKS
COLO. SPRINGS  FLURRIES  36  33  89 W6        30.00S
A. F. ACADEMY  CLOUDY    36  32  87 S12       29.99R
SCHRIEVER AFB  NOT AVBL
ELLICOTT       NOT AVBL
FALCON         MIX PCPN  34  33  94 SW6       30.00S WCI  29
FORT CARSON    CLOUDY    38  34  84 W7        29.97F
LIMON          CLOUDY    37  33  85 NE14      29.99S
MONUMENT HILL  CLOUDY    34  30  86 SE8       30.00S WCI  27
TRINIDAD       LGT RAIN  40  35  83 NW20G28   29.93R
$$

COZ042>045-048>051-090-091-290200-
...NORTHEAST COLORADO...

CITY           SKY/WX    TMP DP  RH WIND       PRES   REMARKS
GREELEY ARPT   CLOUDY    39  34  81 E8        30.03S
AKRON          CLOUDY    39  33  79 E5        30.03S
BURLINGTON     CLOUDY    47  35  63 E8        30.00F
WRAY           NOT AVBL
STERLING       CLOUDY    41  34  75 E3        30.04R
HOLYOKE        NOT AVBL
FORT MORGAN    CLOUDY    40  34  79 E7        30.04R
$$

COZ086-089-092>099-290200-
...SOUTHEAST COLORADO...

CITY           SKY/WX    TMP DP  RH WIND       PRES   REMARKS
PUEBLO         LGT RAIN  46  38  73 N3        29.97R
LA JUNTA       FAIR      52  32  46 E12       29.94R
LAMAR          CLOUDY    52  33  48 E13       29.94S
SPRINGFIELD      N/A     50  35  56 NE18      29.91S
$$




USA.gov is the U.S. government's official web portal to all federal, state and local government web resources and services.